Flag for Switzerland Weather past 2 weeks in Zürich, Zurich, Switzerland

Now
47 °F

Cool.


Feels Like: 43 °F
Forecast: 37 / 71 °F
Wind: 7 mph from Northeast

Location: Zurich Town / Ville.

Current Time: Apr 21, 2015 at 3:47:23 AM

Latest Report: Apr 21, 2015 at 3:00 AM


Visibility: N/A

Pressure: 30.32 "Hg

Humidity: 57%

Dew point: 32 °F

Location of ZürichLocation

Historic Weather in Zürich — Graph

°F

Zürich temperature yesterday

Maximum temperature yesterday: 64 °F (at 5:00 PM)
Minimum temperature yesterday: 39 °F (at 6:00 AM)
Average temperature yesterday: 51 °F

Past Weeks' High & Low Weather Summary

 TemperatureHumidityPressure
High72 °F (Apr 15, 5:00 PM)96% (Apr 17, 10:00 PM)30.61 "Hg (Apr 17, 10:00 PM)
Low30 °F (Apr 6, 7:00 AM)19% (Apr 8, 6:00 PM)29.92 "Hg (Apr 16, 4:00 PM)
Average52 °F54%30.26 "Hg
* Reported Apr 6 2:00 AM — Apr 21 2:00 AM, Zürich, Weather by CustomWeather, © 2015

Note: Actual official high and low records may vary slightly from our data, if they occured in-between our weather recording intervals... More about our weather records

Advertising

Zürich weather history for previous 24 hours

 ConditionsComfort  
Time TempWeatherWind HumidityBarometerVisibility
2:00 AM
Tue, Apr 21
47 °FCool.6 mph55%30.32 "HgN/A
1:00 AM49 °FCool.7 mph51%30.30 "HgN/A
12:00 AM49 °FCool.6 mph51%30.30 "HgN/A
11:00 PM
Mon, Apr 20
52 °FCool.5 mph44%30.29 "HgN/A
10:00 PM54 °FCool.5 mph40%30.26 "HgN/A
9:00 PM54 °FCool.5 mph41%30.24 "HgN/A
8:00 PM58 °FSunny.3 mph33%30.20 "HgN/A
7:00 PM61 °FRefreshingly cool.5 mph30%30.17 "HgN/A
6:00 PM64 °FMild.9 mph32%30.16 "HgN/A
5:00 PM64 °FMild.8 mph32%30.16 "HgN/A
4:00 PM63 °FMild.9 mph26%30.16 "HgN/A
3:00 PM60 °FRefreshingly cool.8 mph31%30.18 "HgN/A
2:00 PM60 °FScattered clouds.8 mph32%30.18 "HgN/A
1:00 PM60 °FRefreshingly cool.9 mph33%30.18 "HgN/A
12:00 PM57 °FRefreshingly cool.7 mph39%30.20 "HgN/A
10:00 AM49 °FCool.8 mph54%30.23 "HgN/A
9:00 AM46 °FCool.6 mph57%30.23 "HgN/A
8:00 AM43 °FQuite cool.3 mph64%30.23 "HgN/A
7:00 AM40 °FQuite cool.8 mph65%30.22 "HgN/A
6:00 AM39 °FChilly.6 mph71%30.21 "HgN/A
4:00 AM43 °FQuite cool.7 mph61%30.19 "HgN/A
3:00 AM43 °FQuite cool.7 mph64%30.17 "HgN/A
Weather by CustomWeather, © 2015

See weather overviewHow to use our weather pages